Location: Publier
(46.3870°N, 6.5449°E)
Time: 22:09:33
(UTC+00:00)

Daily predictions for brighter satellites

Satellite Brightness Start Highest point End
(mag) Time Altitude Azimuth Time Altitude Azimuth Time Altitude Azimuth
H-2A R/B 2.6 17:49:20 10° SE 17:53:54 36° ENE 17:58:35 10° N
SJ 16-02 4.0 17:51:30 10° WSW 17:55:02 23° WNW 17:58:35 10° N
Cosmos 2263 Rocket 3.2 17:52:52 10° SW 17:58:16 50° WNW 18:03:44 10° NNE
USA 116 4.2 17:56:58 10° NNE 18:00:29 39° E 18:04:23 10° S
Cosmos 1939 Rocket 3.5 17:57:40 10° S 18:01:47 64° W 18:05:55 10° NNW
Cosmos 1842 4.4 17:58:34 10° NNW 18:02:19 48° W 18:06:03 10° SSW
Cosmos 1844 Rocket 3.0 17:57:32 10° S 18:02:45 43° ESE 18:08:01 10° NE
Cosmos 372 Rocket 4.0 17:59:23 10° SSW 18:04:36 77° ESE 18:09:50 10° NNE
Cosmos 1707 2.7 18:01:30 10° N 18:05:20 65° E 18:09:08 10° SSE
NOSS 3-2 (C) 4.2 17:59:27 10° NW 18:06:46 60° NE 18:15:03 10° SE
CZ-2C R/B 3.6 18:05:52 10° SSW 18:06:59 11° SSW 18:08:04 10° S
Cosmos 1844 4.1 18:04:57 10° S 18:10:12 40° ESE 18:15:26 10° NE
Cosmos 2034 Rocket 4.4 18:04:46 10° SSE 18:10:42 43° E 18:16:37 10° NNE
ISS -3.0 18:07:48 10° W 18:11:06 49° NNW 18:14:24 10° ENE
NOSS 3-4 (A) 4.3 18:06:58 10° SSE 18:11:39 25° ESE 18:16:32 10° ENE
NOSS 3-4 (C) 4.3 18:07:06 10° SSE 18:11:45 25° ESE 18:16:37 10° ENE
USA 186 3.5 18:11:03 11° ESE 18:12:57 17° ENE 18:15:10 10° NNE
Meteor 1-12 Rocket 4.3 18:08:13 10° S 18:14:00 65° E 18:19:44 10° NNE
Cosmos 1300 Rocket 3.5 18:14:57 10° S 18:19:20 66° E 18:23:45 10° NNE
Okean 1 Rocket 4.1 18:19:00 10° SE 18:22:41 26° E 18:26:23 10° NNE
Sich 1 Rocket 4.0 18:19:11 10° SSW 18:23:41 71° W 18:28:16 10° N
Cosmos 2298 Rocket 4.0 18:20:33 10° SSW 18:25:52 79° ESE 18:31:14 10° NNE
CENTAUR R/B 3.2 18:17:54 10° NW 18:25:53 71° NE 18:34:41 10° SE
Resurs 01 Rocket 3.7 18:25:52 10° ENE 18:26:41 11° ENE 18:27:46 10° NE
Cosmos 1833 Rocket 4.1 18:22:44 10° N 18:27:05 22° NE 18:30:11 15° E
CSL-04 Debris 4.2 18:24:33 10° SSE 18:29:56 90° W 18:35:22 10° NNW
CSL-04 Rocket 3.7 18:26:26 10° SSE 18:31:53 89° ENE 18:37:27 10° NNW
Cosmos 1766 4.3 18:30:25 10° SE 18:33:41 25° E 18:36:57 10° NNE
Okean 2 Rocket 3.1 18:29:24 10° S 18:33:53 86° W 18:38:22 10° N
ATLAS 2AS CENTAUR R/B 3.4 18:26:49 10° S 18:34:00 39° ESE 18:41:11 10° NE
YAOGAN 1 3.3 18:30:19 10° S 18:34:34 55° W 18:38:50 10° NNW
Cosmos 1025 Rocket 3.1 18:30:20 10° N 18:34:45 87° W 18:39:09 10° S
ATLAS 3B R/B 3.5 18:31:44 10° NNW 18:37:59 36° NE 18:42:35 18° E
SWAS 4.4 18:36:23 10° NNW 18:40:42 86° ENE 18:44:39 12° SSE
Abrixas rocket 1.7 18:38:13 10° WNW 18:41:03 84° SSW 18:42:11 33° ESE
CREW DRAGON DEMO-1 DEB 2.7 18:39:59 10° WNW 18:43:01 83° NNE 18:44:16 32° ESE
Cosmos 1536 Rocket 3.5 18:40:04 10° N 18:44:33 88° E 18:49:02 10° S
Cosmos 1125 Rocket 3.4 18:41:13 10° SSW 18:46:31 75° ESE 18:51:50 10° NNE
SJ-6B 3.3 18:48:31 27° ESE 18:49:50 37° ENE 18:53:22 10° N
CZ-4 R/B 3.5 18:48:35 10° SSW 18:52:16 29° W 18:55:58 10° NW
Cosmos 2150 Rocket 4.5 18:48:07 10° SSW 18:53:29 68° WNW 18:58:58 10° NNE
CZ-2C R/B 3.9 18:49:02 10° S 18:54:17 55° W 18:59:51 10° NNW
Cosmos 1464 Rocket 4.4 18:48:43 10° SSW 18:54:48 68° W 19:01:00 10° N
USA 238 DEB 4.2 18:47:59 10° NW 18:55:08 65° WSW 19:02:32 10° SSE
USA 238 4.2 18:48:05 10° NW 18:55:14 65° WSW 19:02:39 10° SSE
Cosmos 1674 2.6 18:53:03 10° N 18:56:56 83° E 19:00:17 13° S
Cosmos 2285 Rocket 3.9 18:50:57 10° S 18:57:12 72° ESE 19:03:33 10° NNE
Cosmos 2026 Rocket 4.3 18:51:31 10° N 18:57:42 49° ENE 19:02:16 18° SE
Cosmos 1092 Rocket 4.0 18:51:48 10° N 18:57:57 63° E 19:04:06 10° SSE
MOS 1 Rocket 3.3 18:58:55 10° N 19:03:17 73° WNW 19:07:32 10° SSW
FREGAT/IRIS 3.7 19:04:41 26° NNE 19:04:41 26° NNE 19:06:07 10° N
TSX-5 3.9 19:04:40 10° SSW 19:08:24 59° ESE 19:13:12 10° NE
ARGOS 3.4 19:04:30 10° S 19:09:49 68° WSW 19:15:13 10° NNW
CZ-2C R/B 2.7 19:08:01 10° NNE 19:13:35 65° ESE 19:19:10 10° S
Cosmos 1340 Rocket 3.6 19:15:11 33° NE 19:15:11 33° NE 19:17:52 10° NNE
Cosmos 2279 Rocket 4.4 19:12:59 30° SE 19:15:01 38° E 19:20:42 10° NNE
Cosmos 1733 3.0 19:13:48 27° S 19:15:46 68° E 19:19:35 10° NNE
MOS 1 4.2 19:13:05 20° SSE 19:17:12 78° ENE 19:22:56 10° NNW
GRACE-FO 1 4.5 19:15:19 10° N 19:19:01 64° E 19:19:03 64° E
Lacrosse 5 rocket 3.2 19:15:33 10° NW 19:19:07 23° NNE 19:20:43 20° NE
GRACE-FO 2 4.5 19:15:41 10° N 19:19:23 65° E 19:19:25 64° E
Cosmos 2082 Rocket 3.1 19:15:26 10° N 19:20:21 30° NE 19:21:17 28° ENE
BREEZE-M DEB (TANK) 4.0 19:19:44 10° W 19:23:08 44° SSW 19:27:36 23° SSE
DMSP B5D2-2 4.0 19:18:08 10° NNE 19:23:25 68° ESE 19:28:40 10° S
BREEZE-M R/B 3.7 19:13:44 10° WSW 19:23:31 83° NNW 19:24:25 49° ENE
OBJECT-B 2.0 19:28:48 33° N 19:28:48 33° N 19:30:47 10° N
Cosmos 1805 3.7 19:23:50 10° SSW 19:27:42 60° W 19:31:36 10° N
Ariane Rocket 3.2 19:28:06 20° S 19:31:41 70° WSW 19:36:47 10° NNW
SL-08 RB Rocket 4.4 19:27:52 13° S 19:31:48 53° W 19:36:15 10° NNW
Milstar 3 Cent rocket 4.2 19:29:15 10° SSW 19:32:02 13° S 19:32:39 13° S
H-2A R/B 3.7 19:28:57 10° SSW 19:33:22 31° W 19:37:55 10° NNW
USA 234 4.4 19:38:14 24° SSE 19:38:14 24° SSE 19:41:13 10° S
Cosmos 1269 Rocket 4.2 19:31:58 10° NNW 19:37:17 72° WSW 19:39:33 35° S
Cosmos 1626 2.4 19:38:31 10° NNW 19:42:02 66° WNW 19:42:02 66° WNW
Okean 1-7 Rocket 4.1 19:38:05 10° N 19:41:50 48° NE 19:41:50 48° NE
MetOp-A 4.3 19:40:20 28° S 19:43:13 71° WSW 19:48:36 10° NNW
USA 186 3.6 19:42:35 25° SW 19:43:25 29° W 19:46:21 10° NNW
COSMOS 2406 3.1 19:40:52 10° NNW 19:46:34 88° WSW 19:47:55 55° SSE
Cosmos 1844 Rocket 4.3 19:41:43 10° WSW 19:46:45 34° NW 19:51:50 10° NNE
ISS -2.0 19:45:17 10° WNW 19:47:46 30° NNW 19:47:46 30° NNW
Cosmos 2278 Rocket 2.3 19:44:57 10° SSW 19:51:32 54° ENE 19:56:08 10° NNE
Lacrosse 4 Rocket 2.6 19:50:10 10° NNW 19:52:52 34° N 19:52:52 34° N
Meteor 1-22 Rocket 4.5 19:49:15 10° SSW 19:55:09 75° WNW 20:01:16 10° N
Meteor 1-24 Rocket 4.1 19:53:30 10° NNW 19:59:00 61° W 20:01:37 32° SSW
Cosmos 909 Rocket 4.2 19:52:51 10° NNW 19:59:16 55° NE 19:59:55 53° ENE
Cosmos 2266 Rocket 4.3 19:55:27 10° N 20:00:34 45° NE 20:00:34 45° NE
NOSS 3-4 (A) 3.7 19:56:02 10° SW 20:01:55 66° NW 20:08:17 10° NE
NOSS 3-4 (C) 3.7 19:56:08 10° SW 20:02:01 67° NW 20:08:24 10° NE
SL-14 R/B 4.2 19:58:19 10° NNW 20:01:55 46° W 20:01:55 46° W
Resurs 01 Rocket 2.2 20:03:26 53° N 20:03:26 53° N 20:06:53 10° NNW
Meteor 2-19 Rocket 4.2 19:57:05 10° N 20:03:14 78° E 20:03:47 71° SE
Cosmos 1833 Rocket 2.6 20:05:59 10° NNW 20:11:40 77° WSW 20:11:54 75° SW
Cosmos 2251 Rocket 3.8 20:09:11 10° NNW 20:13:44 60° NNE 20:13:44 60° NNE
CENTAUR R/B 4.3 20:09:03 10° NW 20:16:25 37° WSW 20:21:59 18° SSW
ARIANE 5 R/B 4.2 20:20:05 29° N 20:20:05 29° N 20:22:16 10° N
SPOT 3 Rocket 4.0 20:20:50 55° WSW 20:21:05 55° W 20:26:10 10° NNW
ATLAS 2AS CENTAUR R/B 3.4 20:16:53 10° SW 20:24:47 63° NW 20:32:35 10° NE
ATLAS 3B R/B 2.8 20:22:19 10° NW 20:29:10 69° WSW 20:29:50 65° SSW
Cosmos 1655 Rocket 4.1 20:31:40 10° NNW 20:37:50 75° W 20:37:50 75° W
Lacrosse 5 rocket 3.8 20:54:37 10° NW 20:56:20 22° NW 20:56:20 22° NW
Cosmos 2082 Rocket 3.3 20:59:16 10° NW 21:03:08 39° WNW 21:03:08 39° WNW
Terra 4.3 21:21:45 18° N 21:21:45 18° N 21:22:54 10° N
Cosmos 2278 Rocket 4.1 21:33:01 21° W 21:35:03 25° NW 21:39:45 10° N
